Location: Brede
(50.9167°N, 0.6000°E)
Time: 02:46:43
(UTC+00:00)

Meteor 2-10 - Pass Details

Date: 08 August 2020
Orbit: 737 x 869 km, 81.2° (Epoch: 25 September)

Event Time Altitude Azimuth Distance (km) Brightness Sun altitude
Exits shadow 03:44:54 - 206° (SSW) 2,774 6.3 -7.5°
Reaches altitude 10° 03:45:52 10° 208° (SSW) 2,409 6.0 -7.3°
Maximum altitude 03:51:16 57° 288° (WNW) 986 4.4 -6.7°
Drops below altitude 10° 03:56:51 10° 6° (N) 2,501 7.3 -5.9°
Sets 03:59:23 0° 11° (N) 3,453 8.1 -5.6°
